AirNav   Pilot Hours Calculator
 
 1073 users online  

12PN WCAU Heliport
Philadelphia, Pennsylvania, USA

GOING TO PHILADELPHIA?


FAA INFORMATION EFFECTIVE 30 JANUARY 2020

Location

FAA Identifier: 12PN
Lat/Long: 40-00-26.4040N 075-12-55.6470W
40-00.440067N 075-12.927450W
40.0073344,-75.2154575
(estimated)
Elevation: 230 ft. / 70 m (estimated)
Variation: 11W (1985)
From city: 6 miles NE of PHILADELPHIA, PA
Time zone: UTC -5 (UTC -4 during Daylight Saving Time)
Zip code: 19004

Heliport Operations

Heliport use: Private use. Permission required prior to landing
Activation date: 02/1979
Control tower: no
ARTCC: NEW YORK CENTER
FSS: WILLIAMSPORT FLIGHT SERVICE STATION
Attendance: UNATNDD
Wind indicator: yes
Segmented circle: no
Lights: FOR PERIMETER LGTS CALL 610-955-8565.

Heliport Communications

WX AWOS-3 at LOM (8 nm N): 118.925 (215-646-1068)
WX ASOS at PHL (8 nm S): PHONE 215-492-9617
WX ASOS at PNE (10 nm NE): 121.15 (215-677-0146)
WX AWOS-3T at OQN (17 nm W): 121.4 ((610) 692-6190)
WX ASOS at VAY (17 nm E): 119.325 (609-267-1176)

Nearby radio navigation aids

VOR radial/distance  VOR name  Freq  Var
PTWr138/20.4POTTSTOWN VORTAC116.5009W
ARDr234/20.4YARDLEY VOR/DME108.2010W
MXEr085/21.6MODENA VORTAC113.2009W
OODr020/22.6WOODSTOWN VORTAC112.8010W
DQOr052/26.8DUPONT VORTAC114.0010W
GXUr282/28.4MC GUIRE VORTAC110.6012W
VCNr348/30.4CEDAR LAKE VOR/DME115.2010W
RBVr261/35.1ROBBINSVILLE VORTAC113.8010W
CYNr298/37.8COYLE VORTAC113.4010W

 
NDB name  Hdg/Dist  Freq  Var  ID
AMBLER168/7.827512WING .. -. --.
RAINBOW005/35.536311WRNB .-. -. -...

Heliport Services

Runway Information

Helipad H1

Dimensions: 60 x 60 ft. / 18 x 18 m
60 X 60 PAD WITHIN 300 X 200 TURF LANDING/TAKEOFF AREA.
Surface: asphalt, in fair condition
Runway edge lights: PERI
Latitude: 40-00.440067N
Longitude: 075-12.927450W
Elevation: 230.0 ft.
Traffic pattern: leftleft
Markings: basic, in fair condition

Heliport Ownership and Management from official FAA records

Ownership: Privately-owned
Owner: WCAU-TV
10 MONUMENT RD
BALA CYNWYD, PA 19004
Phone 215-668-5675
Manager: ANGELO ZANGARE
10 MONUMENT RD
BALA CYNWYD, PA 19004
Phone 215-668-5675

Additional Remarks

TLOF 40' DIAMETER (ASPHALT)
FOR CD CTC PHILADELPHIA APCH AT 800-354-9884.
APP/DEP PATHS; 160 APCH/340 DEP.

Instrument Procedures

There are no published instrument procedures at 12PN.

Some nearby airports with instrument procedures:

KLOM - Wings Field Airport (8 nm N)
KPHL - Philadelphia International Airport (8 nm S)
KPNE - Northeast Philadelphia Airport (10 nm NE)
N10 - Perkiomen Valley Airport (15 nm NW)
KOQN - Brandywine Regional Airport (17 nm W)
KVAY - South Jersey Regional Airport (17 nm E)
7N7 - Spitfire Aerodrome (18 nm SW)
19N - Camden County Airport (18 nm SE)
N14 - Flying W Airport (19 nm E)
17N - Cross Keys Airport (20 nm SE)
 
Loc | Ops | Rwys | IFR | FBO | Links
Com | Nav | Svcs | Stats | Notes
Area around 12PN (WCAU Heliport)
 
Road maps at: MapQuest Bing Google
 
Aerial photo
No photo
 
Sectional chart

 
Airport distance calculator
Flying to WCAU Heliport? Find the distance to fly.

From to 12PN

Sunrise and sunset
Times for 17-Feb-2020
 Local
(UTC-5)
 Zulu
(UTC)
Morning civil twilight06:2511:25
Sunrise06:5211:52
Sunset17:3822:38
Evening civil twilight18:0523:05

Current date and time
Zulu (UTC)  17-Feb-2020 23:03:42
Local (UTC-5)  17-Feb-2020 18:03:42
 
METAR
KLOM 
8nm N 
172255Z AUTO 00000KT 10SM CLR 05/M04 A3027 RMK AO2 T00531037
KPHL 
8nm S 
172254Z 00000KT 10SM FEW260 08/M06 A3027 RMK AO2 SLP250 T00831061 $
KPNE 
10nm NE 
172254Z 12003KT 10SM CLR 09/M07 A3028 RMK AO2 SLP255 T00941067
KOQN 
17nm W 
172255Z AUTO 00000KT 10SM CLR 07/M06 A3026 RMK AO2
KVAY 
18nm E 
ASOS 119.325 609-267-1176
172254Z AUTO 11003KT 10SM CLR 07/M04 A3028 RMK AO2 SLP253 T00721039
TAF
KPHL 
8nm S 
171729Z 1718/1824 08005KT P6SM FEW250 FM180400 09005KT P6SM BKN200 FM181000 08006KT P6SM BKN050 FM181200 11006KT P6SM OVC020 FM181400 14007KT 6SM -SHRA BR OVC015 FM182000 21007KT 6SM -SHRA OVC015 FM182300 25006KT 5SM -SHRA OVC010
KPNE 
10nm NE 
171729Z 1718/1818 VRB04KT P6SM FEW250 FM180500 08005KT P6SM BKN200 FM181100 10006KT P6SM OVC045 FM181200 10005KT P6SM OVC025 FM181400 13006KT 5SM -SHRA BR OVC015 FM181700 17007KT 5SM -SHRA BR OVC010
NOTAMs
Click for the latest NOTAMs
NOTAMs are issued by the DoD/FAA and will open in a separate window not controlled by AirNav.

 

 
 

Would you like to see your business listed on this page?

 If your business provides an interesting product or service to pilots, flight crews, aircraft, or users of the WCAU Heliport, you should consider listing it here.  To start the listing process, click on the button below
 
Add a business
 

Other Pages about WCAU Heliport

Update a link
 
Copyright © AirNav, LLC. All rights reserved. Privacy Policy  Contact